Weather History for Farmingdale, NY

Change the Weather History Date:

Friday, September 13, 2013

  Actual Average Record
Temperature  
Mean Temperature 68 °F -  
Max Temperature 77 °F 74 °F 89 °F (2005)
Min Temperature 60 °F 59 °F 50 °F (2006)
Cooling Degree Days 4    
Growing Degree Days 18 (Base 50)    
Moisture  
Dew Point 61 °F    
Average Humidity 75    
Maximum Humidity 96    
Minimum Humidity 50    
Precipitation  
Precipitation 0.03 in - - ()
Sea Level Pressure  
Sea Level Pressure 29.69 in    
Wind  
Wind Speed 6 mph (NW)    
Max Wind Speed 12 mph    
Max Gust Speed 26 mph    
Visibility 9 miles    
Events Rain    
Averages and records for this station are not official NWS values.
T = Trace of Precipitation, MM = Missing Value Source: NWS Daily Summary

Daily Weather History Graph

Daily Weather History Graph

Search for Another Location

Airport:

Trip Planner

Search our weather history database for the weather conditions in past years. The results will help you decide how hot, cold, wet, or windy it might be!

Date:

Astronomy

Sep. 13, 2013 Rise Set
Actual Time 6:32 AM EDT 7:05 PM EDT
Civil Twilight 6:05 AM EDT 7:33 PM EDT
Nautical Twilight 5:32 AM EDT 8:05 PM EDT
Astronomical Twilight 4:59 AM EDT 8:38 PM EDT
Moon 2:54 PM EDT (9/13) No Moon Set
Length of Visible Light 13h 28m
Length of Day
12h 33m
First Quarter, 61% of the Moon is Illuminated
Sep 13
First Quarter
Sep 19
Full
Sep 26
Last Quarter
Oct 4
New
Oct 11
First Quarter

Hourly Weather History & Observations

Time (EDT) Temp. Dew Point Humidity Pressure Visibility Wind Dir Wind Speed Gust Speed Precip Events Conditions
12:53 AM 69.1 °F 66.9 °F 93% 29.69 in 9.0 mi West 4.6 mph - N/A   Mostly Cloudy
1:53 AM 69.1 °F 66.9 °F 93% 29.65 in 6.0 mi WNW 3.5 mph - 0.00 in   Scattered Clouds
2:53 AM 69.1 °F 66.9 °F 93% 29.64 in 5.0 mi Calm Calm - N/A   Mostly Cloudy
3:53 AM 68.0 °F 66.9 °F 96% 29.64 in 7.0 mi WNW 3.5 mph - 0.00 in Rain Light Rain
4:53 AM 68.0 °F 66.0 °F 93% 29.66 in 4.0 mi WNW 6.9 mph - 0.02 in Rain Rain
5:53 AM 66.9 °F 64.9 °F 93% 29.65 in 10.0 mi North 4.6 mph - 0.01 in   Mostly Cloudy
6:53 AM 66.0 °F 64.9 °F 96% 29.66 in 9.0 mi Calm Calm - N/A   Mostly Cloudy
7:53 AM 66.9 °F 64.9 °F 93% 29.67 in 10.0 mi WNW 4.6 mph - N/A   Clear
8:53 AM 70.0 °F 64.9 °F 84% 29.67 in 10.0 mi WNW 6.9 mph - N/A   Scattered Clouds
9:03 AM 69.8 °F 64.4 °F 83% 29.67 in 10.0 mi NNW 8.1 mph - N/A   Mostly Cloudy
9:20 AM 71.6 °F 64.4 °F 78% 29.67 in 10.0 mi NW 6.9 mph - N/A   Mostly Cloudy
9:39 AM 71.6 °F 64.4 °F 78% 29.66 in 10.0 mi North 4.6 mph - N/A   Scattered Clouds
9:53 AM 72.0 °F 64.9 °F 78% 29.66 in 10.0 mi WNW 5.8 mph - N/A   Partly Cloudy
10:53 AM 73.9 °F 63.0 °F 68% 29.66 in 10.0 mi Variable 3.5 mph - N/A   Scattered Clouds
11:53 AM 73.9 °F 62.1 °F 66% 29.67 in 10.0 mi WNW 8.1 mph - N/A   Mostly Cloudy
12:53 PM 75.0 °F 59.0 °F 57% 29.66 in 10.0 mi West 9.2 mph - N/A   Clear
1:53 PM 71.1 °F 57.9 °F 63% 29.65 in 10.0 mi NNW 9.2 mph - N/A   Partly Cloudy
2:53 PM 75.9 °F 57.0 °F 52% 29.66 in 10.0 mi West 8.1 mph - N/A   Clear
3:53 PM 75.9 °F 55.9 °F 50% 29.66 in 10.0 mi West 6.9 mph - N/A   Clear
4:53 PM 73.9 °F 55.9 °F 53% 29.67 in 10.0 mi WNW 10.4 mph - N/A   Mostly Cloudy
5:53 PM 68.0 °F 57.0 °F 68% 29.70 in 10.0 mi North 11.5 mph 26.5 mph N/A   Clear
6:53 PM 68.0 °F 54.0 °F 61% 29.73 in 10.0 mi NNW 11.5 mph 19.6 mph N/A   Mostly Cloudy
7:53 PM 66.0 °F 54.0 °F 65% 29.76 in 10.0 mi North 10.4 mph 18.4 mph N/A   Clear
8:53 PM 64.9 °F 54.0 °F 68% 29.79 in 10.0 mi North 8.1 mph 17.3 mph N/A   Clear
9:53 PM 64.0 °F 54.0 °F 70% 29.81 in 10.0 mi NNW 6.9 mph - N/A   Partly Cloudy
10:53 PM 62.1 °F 51.1 °F 67% 29.83 in 10.0 mi NNW 9.2 mph - N/A   Clear
11:53 PM 60.1 °F 51.1 °F 72% 29.83 in 10.0 mi NNW 9.2 mph - N/A   Clear